RH
63 64 67 67 67 68 72 75 78 80 78 79 73 62 62 67 64 62 61 53 50 51 52 55 57 48 41 43 50 58 54 51 59 61 58 54 53 51 53 56 57 59 50 54 73 82 67 53 71 80 78 85 84 82 77 74 65 48 49 50 44 39
62 66 68 71 75 72 68 72 79 81 79 76 69 68 71 74 71 71 65 50 51 56 60 67 68 57 43 44 55 61 56 53 59 61 55 53 56 53 48 46 50 58 52 50 66 81 73 52 62 77 78 83 83 81 78 72 62 50 53 53 43 35
62 69 73 75 77 75 69 69 78 83 76 66 64 70 71 73 69 70 68 54 59 64 65 74 78 74 57 48 55 61 60 58 59 57 54 54 54 48 44 44 44 52 52 46 54 72 75 54 51 72 80 80 81 77 73 67 61 62 66 59 44 35
67 72 78 79 75 74 73 68 75 83 75 62 59 62 65 75 71 66 68 65 71 68 65 71 73 76 71 60 57 62 62 58 57 55 57 59 54 44 38 44 43 43 50 47 48 63 75 61 47 64 78 79 79 74 68 63 66 72 70 60 46 36
74 77 80 79 75 73 75 70 72 80 78 65 49 49 69 81 73 71 74 70 72 66 64 71 73 76 76 68 62 70 69 58 56 57 61 61 59 55 42 43 46 46 53 52 48 55 65 59 50 59 72 78 76 72 71 66 68 73 67 60 50 38
77 79 81 79 74 69 72 73 71 77 79 69 43 39 69 81 73 73 68 67 73 69 67 73 79 80 79 74 69 74 71 58 55 58 63 61 64 63 46 43 49 53 55 53 53 53 51 48 46 53 64 73 71 63 66 66 65 67 63 57 50 42
70 68 71 75 73 64 68 74 74 76 76 73 51 34 54 74 77 73 64 69 77 71 70 77 83 81 80 83 79 78 71 60 56 59 63 61 66 63 52 60 67 68 65 63 67 61 50 43 39 45 54 64 66 59 55 59 63 64 63 56 47 43
64 60 63 74 76 66 67 75 77 78 75 74 63 39 38 57 70 71 70 74 76 76 79 81 85 80 78 84 86 86 78 67 59 59 64 62 66 63 61 76 83 85 84 79 79 69 56 48 44 47 52 59 59 57 56 57 65 68 66 58 48 43
59 56 65 78 78 71 69 75 80 81 80 77 72 53 35 41 57 67 73 76 77 81 84 83 86 84 81 81 83 85 80 76 66 59 64 63 65 68 67 74 78 83 87 85 82 76 67 56 52 51 56 70 69 64 63 60 67 76 76 71 66 57
54 57 68 81 80 74 70 76 84 84 83 79 76 67 51 47 57 68 74 78 80 80 81 81 84 85 84 81 79 79 76 78 73 62 62 63 65 72 72 74 78 81 83 83 81 79 73 61 59 60 61 72 78 74 67 67 77 84 85 85 84 75
54 62 69 79 79 74 72 77 85 86 86 85 81 77 68 62 64 71 78 82 82 79 79 80 83 83 82 79 74 73 74 77 77 69 65 65 69 74 76 77 81 84 83 82 80 76 73 64 63 70 69 67 69 66 57 65 82 86 88 87 84 79
52 66 71 76 75 72 72 74 77 78 80 81 84 85 80 76 73 74 80 85 87 84 81 81 82 77 71 70 69 71 75 77 76 77 74 70 72 76 77 78 81 85 84 84 83 78 73 66 64 71 76 71 67 65 55 56 68 77 82 84 84 82
50 66 72 72 72 72 70 68 65 62 66 67 70 80 82 82 83 84 87 89 90 89 84 80 76 75 74 70 69 72 73 73 72 75 78 76 76 78 78 77 78 81 84 86 85 79 74 69 68 71 73 74 72 71 67 61 61 66 71 74 80 82
52 61 64 65 63 61 59 57 52 48 55 57 55 61 63 65 73 81 87 92 94 91 85 82 78 79 81 77 76 77 74 72 71 70 71 75 79 79 79 77 77 80 84 90 87 79 73 69 70 74 74 74 75 75 74 73 71 71 70 68 70 75
52 59 55 51 43 39 45 45 41 39 41 50 58 60 55 50 55 62 68 78 89 94 89 84 84 84 85 84 79 78 82 79 75 69 66 71 77 80 82 79 77 79 84 90 92 85 75 70 71 75 76 75 75 77 76 75 77 77 75 73 71 72
40 49 41 33 29 31 38 34 33 40 44 53 65 64 58 52 49 55 58 59 68 84 91 86 83 82 82 84 77 73 84 87 82 75 70 71 75 81 84 78 72 74 80 86 90 85 76 73 75 75 74 73 74 78 77 76 76 77 78 77 75 73
21 27 21 22 31 33 26 18 27 50 64 70 69 62 63 61 55 57 60 58 58 66 77 81 81 78 75 77 78 78 81 83 84 81 77 74 72 74 74 67 63 65 73 80 84 83 77 77 79 74 70 68 71 73 73 73 73 74 77 78 78 77
13 14 13 21 34 32 21 16 29 52 62 61 56 53 63 71 68 65 62 62 64 64 66 69 72 76 78 75 73 78 80 82 89 89 85 79 69 65 63 58 55 60 69 75 80 82 81 83 80 73 68 66 69 69 66 65 65 65 65 62 65 74
14 14 16 26 32 31 30 28 31 40 40 34 35 43 56 68 73 74 71 67 69 72 69 63 62 71 81 81 75 79 84 88 94 92 86 82 72 60 58 56 56 68 76 74 80 85 82 82 80 76 72 72 73 71 65 61 59 58 55 48 44 58
16 21 27 34 35 35 38 37 36 36 31 23 23 29 34 39 48 55 57 55 57 66 68 59 52 54 61 67 70 76 84 92 98 94 85 82 80 69 63 65 70 84 87 77 79 83 79 77 80 81 77 78 79 75 70 65 62 60 58 54 45 45
19 29 36 36 37 39 39 38 39 37 33 27 19 17 17 16 21 24 24 26 30 45 57 51 38 37 45 48 49 53 61 72 82 90 89 85 86 84 81 81 82 88 89 83 82 80 77 76 79 84 80 77 78 75 73 71 68 63 59 60 55 49
21 32 42 42 40 41 39 38 37 34 33 30 22 19 21 20 19 18 16 16 17 22 31 29 21 25 36 39 37 35 34 39 48 64 77 75 74 77 81 83 83 85 85 83 84 80 77 74 72 78 81 79 79 78 75 73 72 67 60 60 60 56
23 32 43 48 46 42 38 36 33 30 29 29 27 24 25 25 23 22 20 18 17 16 17 15 14 17 22 25 26 25 23 25 34 48 57 54 52 53 58 65 69 78 80 77 79 74 70 70 66 72 82 84 83 79 76 74 73 68 63 62 62 62
24 31 36 41 48 45 38 37 34 30 29 31 32 28 27 27 25 24 22 20 16 15 16 17 17 17 19 19 19 19 18 18 23 32 38 40 43 45 50 58 61 68 74 77 84 82 74 70 70 79 85 85 86 82 78 75 71 66 63 63 64 65
21 27 29 33 43 44 37 36 35 31 30 33 33 30 29 28 26 25 24 23 20 16 16 19 22 25 26 26 22 19 19 18 18 19 20 24 34 44 53 63 65 69 77 82 88 90 84 76 78 87 81 74 84 88 82 78 73 69 66 66 66 66
22 23 24 28 38 42 37 32 30 29 29 30 31 31 32 31 28 27 25 25 25 22 19 19 24 30 32 33 30 26 24 26 29 30 27 24 27 37 47 57 60 62 70 76 80 85 87 85 87 88 77 71 82 86 84 84 82 76 71 69 68 68
28 24 24 25 32 38 35 30 29 30 30 29 29 30 34 34 30 28 27 27 27 26 25 23 24 25 27 30 30 29 27 28 33 38 40 34 29 30 35 43 48 50 54 57 63 70 75 81 86 86 83 82 84 83 84 88 86 82 78 73 70 70
34 28 25 26 28 30 30 31 33 34 33 33 33 34 36 37 34 30 28 29 29 28 29 28 28 26 23 22 21 19 17 17 21 26 31 33 35 40 41 42 44 48 52 50 53 60 64 69 76 79 83 86 86 86 88 89 86 83 81 80 77 72
38 31 27 27 29 29 29 32 35 36 35 35 39 40 39 39 36 33 30 29 30 30 30 31 32 30 27 24 21 18 16 14 14 16 20 25 32 41 47 52 57 60 65 62 57 58 63 68 69 70 73 76 78 76 77 82 83 83 84 86 84 76
39 34 28 27 30 33 33 35 37 37 36 35 40 43 41 40 39 35 32 30 31 31 31 31 32 32 31 29 27 25 23 22 20 19 18 19 22 26 32 44 59 71 79 83 79 72 69 69 69 72 73 72 69 62 60 65 68 75 84 89 89 80
39 36 32 29 32 36 37 39 39 37 36 36 39 41 39 40 41 38 35 32 32 32 33 32 32 32 31 30 29 28 28 28 28 26 24 22 21 20 22 25 34 45 55 65 76 82 84 80 74 76 81 81 77 70 67 66 65 72 84 91 95 91
42 39 36 32 34 40 42 43 44 39 36 37 40 41 40 42 42 40 37 36 34 32 33 33 32 33 32 30 30 29 30 30 30 29 26 25 23 21 21 19 19 22 25 28 37 54 74 87 85 79 78 82 83 83 83 81 78 82 88 89 93 97
44 40 38 36 36 43 46 45 45 41 38 41 44 44 43 45 45 42 39 38 36 34 34 33 33 33 32 32 31 31 31 32 30 28 26 25 24 20 17 16 16 17 18 19 18 23 37 59 77 83 82 80 80 81 81 82 85 87 89 89 92 95
44 41 39 37 37 44 49 45 44 42 40 41 43 44 45 46 46 43 40 40 39 36 35 34 33 33 32 32 33 34 34 33 30 28 28 27 24 22 19 15 14 13 14 15 15 15 16 24 43 65 80 86 85 80 73 74 82 87 89 92 95 96
44 42 40 39 38 42 48 47 43 42 42 40 40 42 45 47 48 45 42 42 41 38 37 35 34 34 34 33 34 35 35 33 31 29 30 30 27 26 23 20 16 13 12 13 12 11 11 13 20 33 53 70 81 84 79 75 77 83 89 92 92 96
42 41 39 39 38 36 42 47 44 43 42 40 41 44 46 48 50 48 45 43 42 40 38 36 35 35 35 35 35 36 35 32 32 32 33 32 30 28 27 25 22 16 14 14 14 13 10 10 12 19 29 43 55 65 72 75 77 80 85 85 85 89
40 41 40 40 38 35 38 42 42 43 43 41 42 43 44 48 52 50 47 45 43 42 41 37 35 36 36 37 38 37 35 32 32 34 35 33 32 30 28 27 25 22 18 15 16 20 20 16 14 16 22 29 37 42 50 63 70 72 75 76 73 75
Wind_Speed
7 7 6 6 9 11 12 11 11 11 12 11 10 10 11 11 10 9 8 8 8 7 7 8 8 8 9 9 9 7 8 9 9 8 5 4 3 4 6 8 10 10 11 12 16 17 18 22 22 20 19 16 14 13 12 10 8 7 5 3 2 2
6 5 4 5 7 10 11 12 11 12 12 11 11 11 11 11 11 10 8 6 7 7 6 7 7 7 8 10 9 7 7 7 7 6 4 3 3 4 6 8 10 11 11 12 15 17 17 21 23 21 19 16 14 13 12 11 10 8 6 4 4 3
4 4 4 4 5 7 9 11 12 13 12 11 11 12 13 12 11 10 8 6 6 6 6 7 7 7 8 9 9 8 7 7 6 5 3 1 1 3 5 7 10 11 11 12 14 17 16 19 24 22 20 17 14 13 11 11 10 8 6 5 4 5
4 4 4 3 3 4 7 10 12 13 12 11 12 14 15 13 11 10 9 9 9 8 7 6 6 8 9 9 9 9 8 7 6 4 2 1 1 1 3 7 10 11 12 12 14 16 16 17 23 24 21 18 13 12 12 10 9 7 5 5 5 5
5 5 5 4 4 3 5 9 12 13 12 11 13 16 16 14 14 12 11 11 10 9 7 6 5 7 10 11 11 10 9 7 6 5 2 1 2 2 1 6 10 11 12 13 15 16 16 15 20 23 23 20 13 11 12 10 8 6 5 5 5 5
6 6 4 4 4 4 4 7 11 12 12 12 13 16 17 17 16 15 14 13 11 9 7 5 4 5 8 12 13 11 9 8 7 5 2 1 2 3 2 6 10 12 13 15 16 17 16 14 16 21 23 22 16 11 11 10 7 6 6 6 6 6
7 6 5 5 4 5 6 7 10 11 12 12 13 15 16 17 17 16 14 13 12 9 7 6 5 5 7 11 13 12 10 8 7 5 3 2 1 3 7 11 13 13 15 16 16 16 15 12 12 18 23 23 19 13 11 10 7 6 7 8 9 8
8 7 7 8 6 6 7 8 10 11 12 13 13 15 16 16 16 15 14 13 12 10 8 7 6 7 8 9 10 12 12 9 8 7 5 3 2 5 10 13 13 13 13 13 14 14 12 9 7 12 19 22 20 17 14 12 9 6 7 9 10 10
10 9 9 9 7 7 8 9 11 12 13 13 14 16 17 16 15 14 14 12 11 9 9 8 6 7 8 9 10 11 12 10 9 9 8 6 5 7 11 12 11 10 10 10 11 11 10 8 7 9 14 16 17 17 15 14 10 6 7 8 8 9
11 10 9 10 9 8 8 9 10 12 13 14 15 17 17 17 16 15 14 12 11 11 10 9 8 7 7 9 11 11 12 11 11 10 10 9 9 10 11 11 10 9 9 10 10 10 9 8 9 10 11 12 13 14 14 13 9 7 8 8 7 8
12 10 10 10 10 10 8 9 8 9 11 13 15 17 18 18 18 16 15 14 12 11 11 10 9 7 7 9 11 12 12 12 12 12 12 11 12 13 13 13 12 10 10 11 10 10 9 7 8 10 11 10 10 12 13 12 10 9 9 10 9 8
13 12 10 10 10 10 10 9 8 7 8 10 13 16 18 18 17 17 16 15 13 11 11 11 10 7 8 9 10 11 12 13 13 13 14 12 12 14 14 14 14 14 13 12 11 12 11 9 7 9 10 9 8 10 11 11 12 12 12 11 10 10
15 14 12 11 10 9 9 9 9 9 8 8 10 13 16 15 16 17 16 14 13 13 12 12 11 9 10 9 8 10 11 12 12 13 14 14 13 13 14 14 14 15 14 13 13 15 14 12 9 8 9 9 8 9 9 10 11 12 13 14 13 12
15 15 14 12 11 9 9 9 9 10 10 9 9 10 11 11 12 15 15 14 14 13 12 11 11 11 11 10 9 10 11 11 11 12 13 14 14 13 12 12 14 16 15 15 15 16 16 14 10 10 10 10 10 9 9 10 10 9 10 13 15 15
15 16 14 12 10 10 8 7 6 8 10 10 9 8 8 9 9 10 11 13 14 12 12 11 11 10 11 11 11 11 12 12 12 12 12 13 14 14 13 10 11 15 17 17 15 14 17 15 12 13 13 12 12 11 11 12 12 10 8 9 12 15
15 15 12 10 8 7 6 6 7 8 9 10 10 8 8 9 8 7 6 9 11 13 14 13 11 10 11 11 11 12 13 13 13 13 13 14 15 15 14 9 8 13 17 17 14 14 18 17 15 14 14 14 13 13 14 14 14 13 11 10 10 13
12 11 9 8 8 7 7 8 9 10 9 9 8 7 8 8 8 7 6 6 8 10 12 14 12 10 10 10 10 12 12 13 15 15 14 15 16 16 13 9 8 11 16 17 15 16 20 19 17 16 14 14 14 15 17 17 16 15 15 14 11 11
10 10 10 11 10 10 10 10 11 11 9 7 6 7 7 6 6 6 5 5 5 6 8 11 13 11 10 9 10 12 11 12 14 13 13 15 17 16 13 9 11 11 14 18 18 17 19 19 18 17 15 13 13 13 15 17 17 16 16 16 15 14
11 12 14 14 14 13 12 11 10 10 8 6 4 6 6 4 4 4 5 6 7 6 5 6 10 13 12 10 10 11 11 12 13 13 13 14 17 18 16 14 15 14 14 18 20 18 19 20 19 18 16 14 13 12 12 14 16 16 15 14 15 16
12 14 16 17 16 14 13 10 9 9 7 7 6 5 4 2 4 6 8 9 10 10 8 7 8 11 13 12 11 11 11 12 13 14 14 15 17 19 19 18 18 18 18 19 20 19 20 22 21 20 18 17 16 14 12 13 15 15 15 14 13 15
15 16 16 16 15 15 12 10 9 8 6 6 7 7 6 4 2 3 7 10 11 11 10 10 9 10 11 11 11 11 13 14 14 15 15 16 17 18 18 19 19 19 19 18 19 19 22 22 20 19 19 19 18 15 14 15 15 15 15 15 15 15
16 17 16 15 15 15 12 9 8 7 4 5 6 7 8 8 8 5 2 4 7 9 10 11 11 11 11 10 10 10 12 14 16 17 17 16 16 17 18 19 19 18 17 17 17 19 22 24 20 18 19 20 20 17 16 17 18 16 15 15 16 17
17 17 17 15 15 15 13 9 7 5 4 4 4 4 7 9 11 11 9 5 1 3 7 9 10 11 12 11 10 10 10 11 12 14 15 16 15 15 16 18 20 20 20 18 17 18 22 24 22 19 19 20 20 19 19 20 21 19 17 16 17 18
18 17 16 15 15 16 14 12 10 7 5 4 4 3 5 9 11 12 12 11 8 4 1 4 7 9 10 9 9 9 9 9 10 10 11 13 13 14 14 14 16 18 20 20 19 20 22 23 23 22 22 22 18 18 20 21 21 20 17 18 18 18
19 18 16 14 16 18 16 15 13 10 8 6 6 4 3 7 9 11 13 13 12 10 6 2 2 4 6 6 7 6 6 8 10 10 10 11 12 13 13 12 12 13 15 17 18 19 21 23 25 25 25 24 18 15 18 19 19 18 17 18 20 20
21 19 16 15 17 19 17 15 14 12 9 7 7 5 2 5 6 9 11 12 13 12 11 9 6 4 2 2 3 3 3 4 6 8 8 9 10 11 12 11 11 12 12 12 12 13 17 20 23 26 26 26 21 16 15 16 17 16 16 19 21 22
22 20 17 16 17 19 18 16 14 12 9 7 6 4 2 2 3 6 8 10 11 11 11 11 10 9 7 5 4 3 2 1 2 4 5 6 7 8 10 10 11 12 12 12 10 9 12 14 17 22 22 23 25 23 19 16 15 14 14 16 20 22
22 20 17 16 17 18 18 17 14 12 11 9 6 4 3 2 1 3 4 7 9 9 10 11 11 10 9 9 8 7 5 3 1 1 3 4 5 7 8 8 10 11 11 12 11 10 11 11 13 16 18 21 24 26 24 21 19 17 16 17 18 19
22 20 17 16 17 18 18 17 15 13 12 10 7 6 6 4 2 1 1 4 6 7 8 9 9 9 9 9 8 8 7 6 4 3 1 2 3 5 7 7 8 9 10 11 12 13 13 13 13 13 15 19 21 22 23 24 24 25 24 23 23 22
22 20 17 16 18 18 18 17 16 14 13 11 10 11 10 7 6 5 2 0 2 5 6 7 7 7 7 7 7 7 7 6 5 4 3 2 2 4 6 7 8 9 10 11 13 15 16 16 16 15 14 15 18 19 19 21 23 25 27 28 29 29
22 20 17 16 18 19 19 18 17 16 14 12 12 12 11 10 9 7 4 2 1 2 3 4 5 5 4 4 5 5 5 5 5 4 3 3 3 4 6 7 9 10 11 12 13 14 16 17 17 17 15 14 15 17 18 20 22 24 26 28 29 33
24 21 17 17 18 19 19 19 19 17 15 14 13 13 12 11 10 8 6 5 4 2 2 2 3 3 3 3 3 4 5 5 5 5 5 5 6 7 7 9 10 11 12 13 14 15 16 16 17 18 17 16 14 14 16 18 21 24 26 27 29 31
26 22 19 18 19 21 20 19 19 18 16 15 15 14 13 11 11 9 8 8 6 4 2 2 1 1 1 1 2 3 5 6 6 6 7 8 9 10 10 11 11 13 14 15 15 16 17 17 17 18 18 19 18 17 17 17 19 22 24 26 27 29
27 23 20 19 20 22 22 20 20 18 17 16 15 14 13 13 12 11 10 10 8 6 4 3 2 2 2 3 4 4 5 6 7 7 7 8 9 10 11 12 12 12 13 15 17 18 18 19 19 19 19 20 21 21 20 18 17 19 21 23 25 27
30 26 23 21 21 23 23 22 21 20 18 16 16 15 14 14 13 13 13 12 10 8 7 5 4 4 4 4 5 6 7 8 9 9 9 9 10 11 12 12 13 13 12 13 15 17 19 20 20 21 21 22 22 23 23 22 21 20 20 21 22 24
31 28 26 24 23 23 24 23 22 21 19 17 17 16 16 17 16 15 15 14 13 11 9 7 6 6 5 5 6 7 8 9 10 10 11 12 14 15 15 15 13 13 12 12 13 15 18 20 22 22 22 23 24 24 24 24 24 24 23 22 23 24
32 31 29 27 24 23 24 24 24 23 21 19 18 17 17 18 18 18 17 16 15 13 11 10 9 8 7 7 7 8 9 10 10 10 11 13 15 17 19 19 17 15 13 12 13 15 17 19 21 23 24 24 25 26 26 26 26 27 26 26 26 27
Wind_Direction
167 163 160 158 169 176 178 179 177 174 166 171 179 182 183 181 183 177 174 178 174 166 158 167 172 180 183 173 176 178 163 159 171 172 161 170 182 193 198 196 187 180 184 179 173 171 170 173 171 160 155 159 169 175 175 170 162 159 151 157 188 205
159 156 144 136 154 165 173 175 172 171 169 174 177 180 182 180 183 179 183 189 174 169 166 171 175 179 183 179 178 175 165 161 166 169 166 165 185 209 216 211 197 185 186 184 175 172 170 175 175 165 161 166 174 178 179 175 166 162 162 171 193 197
137 133 126 118 134 150 165 170 169 169 170 171 171 181 185 182 184 181 188 196 179 176 181 181 185 182 178 182 181 174 168 168 166 162 158 148 214 224 222 215 201 190 186 184 179 174 169 173 177 171 165 170 177 180 182 180 168 161 169 180 194 196
113 108 107 106 124 145 162 169 169 168 170 168 170 180 182 183 186 184 191 198 189 187 196 195 201 197 184 182 185 182 174 171 170 164 153 86 4 303 221 203 194 189 181 174 173 176 172 171 178 176 171 172 175 179 183 184 168 162 182 194 202 204
116 107 100 100 123 149 166 172 172 172 174 171 173 177 176 182 186 187 197 202 198 197 204 199 198 202 192 187 189 191 181 176 175 169 166 64 36 16 248 200 186 177 170 162 158 169 173 168 175 180 177 173 175 181 185 189 176 173 204 218 218 214
136 131 131 130 143 164 174 180 180 179 181 179 178 179 179 184 187 190 196 200 203 207 208 202 186 187 198 196 192 190 187 186 179 167 167 106 50 41 112 171 170 165 159 155 150 157 168 163 168 180 183 178 178 188 195 203 196 191 222 239 239 233
164 170 176 169 167 174 178 187 190 189 190 191 186 186 188 190 192 193 195 197 204 211 210 211 202 186 195 200 198 195 195 195 177 166 174 154 67 85 123 135 139 147 150 151 145 145 159 160 158 174 187 188 190 201 206 214 215 214 238 249 250 250
193 202 195 184 181 179 187 193 195 198 199 203 197 193 197 199 197 196 199 200 204 213 211 211 210 196 188 191 201 200 201 205 183 172 184 175 126 124 137 135 132 136 142 148 143 134 140 146 142 162 183 193 200 210 213 215 220 229 253 260 260 261
213 215 201 190 186 181 194 200 201 206 207 210 206 202 202 203 202 200 207 208 208 217 217 215 212 203 190 188 199 199 199 207 197 183 187 184 161 145 149 148 146 146 146 152 149 138 133 130 130 152 176 188 197 205 207 212 219 230 252 265 270 268
214 211 196 187 185 186 196 202 204 208 211 213 210 210 208 207 208 209 214 215 217 221 221 219 218 216 204 197 200 200 199 204 204 193 188 182 169 165 165 162 164 164 161 164 164 158 150 143 144 153 173 189 199 209 211 211 213 224 241 253 264 271
208 201 188 184 188 192 196 196 198 201 209 214 212 214 213 213 215 216 218 220 225 227 226 223 222 222 211 206 204 205 207 207 209 200 197 189 173 172 175 172 174 180 181 179 181 179 172 167 164 163 172 189 206 223 229 222 213 216 234 244 255 267
199 193 186 191 195 196 196 196 195 193 197 207 213 217 219 221 223 224 224 224 228 230 231 227 225 221 204 205 206 208 213 216 216 207 207 205 186 179 178 178 179 185 188 186 191 196 192 187 187 181 184 194 207 224 235 233 225 223 231 240 250 262
194 190 190 197 203 206 209 209 209 205 195 190 200 211 218 224 227 229 229 227 227 224 227 225 222 218 207 206 207 211 216 219 220 212 212 215 207 193 185 185 187 188 190 197 200 200 203 200 199 203 201 210 217 221 232 236 234 233 237 241 245 253
195 194 198 205 216 225 228 225 220 214 205 191 185 194 204 209 215 222 225 228 228 221 221 220 217 217 215 211 210 216 222 225 224 215 213 217 219 215 205 201 206 209 212 225 219 201 205 207 207 216 214 219 227 227 231 238 241 240 241 242 244 249
201 199 204 213 225 231 230 221 213 211 204 192 176 170 184 193 202 210 215 222 227 226 222 217 211 213 217 213 210 216 225 231 231 225 221 219 219 223 224 219 226 228 221 228 229 208 206 210 212 219 220 226 232 232 234 241 245 244 243 241 246 249
204 206 209 212 214 211 200 187 187 189 183 179 172 164 175 190 201 207 204 209 217 223 224 221 212 207 214 214 210 215 222 224 225 227 225 220 216 217 223 229 241 230 212 213 218 205 201 208 217 221 225 235 237 238 242 244 244 244 245 246 252 250
192 198 195 187 184 174 158 162 171 165 157 164 173 169 172 186 198 206 210 208 208 214 221 225 220 215 219 217 208 212 218 214 212 217 218 216 212 209 215 230 251 227 205 206 208 198 194 201 217 226 227 234 238 243 248 250 247 244 245 249 254 250
164 165 157 155 162 157 141 143 153 156 157 160 169 170 165 176 190 200 216 226 224 217 217 220 221 221 220 217 208 209 215 209 205 209 214 214 210 204 199 213 244 234 209 208 207 200 197 202 220 233 230 227 234 243 249 255 256 251 249 254 255 248
152 150 145 147 153 148 134 133 137 141 142 131 147 174 171 181 201 222 237 246 254 252 242 223 220 222 218 212 203 201 206 208 208 210 211 212 210 208 203 212 233 237 224 218 215 210 207 209 219 231 232 230 236 241 245 253 257 255 254 261 261 250
153 152 148 148 150 142 134 135 133 128 118 100 113 148 156 186 225 242 249 249 249 251 254 245 230 227 224 221 213 204 203 205 209 213 211 210 211 213 217 224 231 230 225 221 221 218 215 216 217 224 231 232 235 239 240 244 251 256 258 263 264 254
158 159 156 153 150 144 143 147 145 138 117 99 107 111 105 96 92 249 254 253 247 243 245 247 242 234 228 227 223 214 211 213 215 218 217 215 217 220 225 231 233 229 223 219 222 219 215 221 222 220 225 229 233 238 239 239 246 255 260 264 264 256
167 164 161 159 156 153 154 160 161 155 132 121 118 98 87 81 69 59 6 272 254 245 243 242 239 234 231 228 222 213 209 214 220 222 222 222 226 231 234 239 242 240 234 227 227 225 218 221 226 222 224 231 235 236 234 235 241 249 256 260 262 259
176 172 168 169 167 163 164 172 178 173 161 161 150 109 75 68 65 60 59 59 59 245 244 239 232 228 231 231 228 222 211 210 216 218 220 223 228 234 237 241 246 248 247 240 235 236 229 224 227 227 229 233 234 233 229 228 233 240 249 253 255 259
183 179 177 177 174 172 174 181 189 188 189 205 191 154 68 62 63 61 61 58 57 49 293 237 229 228 230 233 234 232 223 219 222 222 223 225 227 230 233 237 241 245 248 245 241 240 236 232 230 228 232 236 233 229 225 225 231 237 245 250 251 254
188 186 184 181 175 176 181 187 194 195 200 210 199 182 69 62 64 64 63 58 56 51 44 72 173 211 229 241 245 245 236 229 231 234 235 235 234 233 232 230 230 233 239 244 246 244 239 238 233 225 230 236 230 225 228 230 234 238 244 249 253 255
192 193 191 185 179 185 196 203 206 206 208 207 194 187 88 63 63 66 67 65 66 62 56 62 76 98 145 232 259 278 264 241 237 240 242 243 244 243 241 237 230 226 227 235 247 249 241 241 236 228 229 236 236 235 241 239 232 237 246 250 253 254
195 198 197 190 186 194 207 214 215 215 219 214 198 187 131 78 58 64 67 69 72 71 69 67 66 68 70 72 62 43 30 302 241 242 251 254 255 257 256 254 248 240 236 236 242 250 246 246 244 240 238 241 243 241 243 243 235 237 249 253 252 252
199 201 201 198 194 199 208 213 213 213 216 214 209 199 171 161 31 47 61 67 71 72 74 75 74 71 67 68 67 63 59 50 44 250 257 259 264 270 270 267 263 259 257 253 250 251 252 249 247 248 245 243 246 246 244 245 246 246 250 255 256 255
204 204 205 204 202 204 209 213 213 215 216 213 208 208 206 214 245 273 38 60 68 72 76 79 82 82 78 74 70 67 64 58 53 41 351 276 269 273 274 272 270 270 270 269 264 261 260 257 251 251 249 247 251 254 251 249 250 251 250 252 254 254
209 209 210 210 208 208 212 214 215 218 221 217 207 210 219 227 234 239 240 65 60 75 84 83 85 87 84 78 72 69 65 60 55 47 33 355 309 286 281 274 270 271 269 269 269 266 266 264 258 257 258 257 256 257 255 253 254 256 255 254 254 254
212 213 216 217 213 212 215 217 218 220 223 220 213 216 224 228 232 235 228 227 245 106 107 96 96 96 88 76 63 57 52 48 45 37 27 2 331 305 291 278 269 266 263 262 262 263 264 265 264 262 262 265 264 261 259 257 257 259 262 261 259 257
212 214 219 223 219 216 219 222 222 223 224 221 220 224 226 230 236 237 228 228 230 202 165 129 119 113 104 93 60 42 31 26 20 13 8 356 342 325 304 287 273 264 261 260 258 258 258 259 261 262 261 261 264 267 265 263 261 259 261 263 263 260
214 215 221 226 223 220 222 226 227 227 225 222 223 227 228 233 240 240 234 234 235 230 227 218 182 112 83 64 44 30 14 9 4 359 358 353 346 339 325 307 287 271 262 258 257 257 256 255 254 257 259 260 260 263 264 266 268 265 262 264 264 264
217 218 224 228 226 224 226 229 231 232 229 226 228 231 231 234 242 244 240 238 239 238 238 245 267 300 326 347 358 360 351 349 349 347 347 348 349 348 342 331 315 295 274 261 256 256 257 256 253 251 254 259 261 261 261 263 269 272 269 265 262 262
219 220 223 226 226 226 228 231 233 233 232 232 234 236 235 237 242 244 241 238 235 235 237 243 258 278 302 324 333 334 334 335 337 337 336 340 345 347 347 343 333 317 297 276 263 257 256 257 255 253 252 254 259 261 262 264 266 271 273 270 267 265
221 224 225 225 224 225 228 232 234 235 234 234 235 236 237 238 240 241 241 239 236 235 234 236 246 260 277 295 311 319 325 326 328 331 335 340 342 342 343 344 340 327 310 292 275 266 260 256 254 254 254 254 256 258 261 263 264 267 269 270 272 274
222 225 226 225 223 223 226 232 236 237 236 235 235 236 237 238 238 239 239 237 237 236 232 232 238 245 259 276 293 306 314 319 322 327 335 339 341 341 340 339 337 334 322 302 283 271 265 261 256 253 253 255 256 256 258 260 261 263 266 267 268 272